Time,TemperatureF,DewpointF,PressureIn,WindDirection,WindDirectionDegrees,WindSpeedMPH,WindSpeedGustMPH,Humidity,HourlyPrecipIn,Conditions,Clouds,dailyrainin,SoftwareType,DateUTC
2013-02-24 00:05:00,46.0,30.3,30.16,South,187,1.0,14.0,54,0.00,,,0.00,Wunderground v.1.15,2013-02-24 08:05:00,
2013-02-24 00:10:00,45.9,29.7,30.16,East,86,1.0,14.0,53,0.00,,,0.00,Wunderground v.1.15,2013-02-24 08:10:00,
2013-02-24 00:15:00,45.9,29.2,30.16,East,86,1.0,14.0,52,0.00,,,0.00,Wunderground v.1.15,2013-02-24 08:15:00,
2013-02-24 00:20:00,45.9,28.3,30.16,NNE,31,1.0,14.0,50,0.00,,,0.00,Wunderground v.1.15,2013-02-24 08:20:00,
2013-02-24 00:25:00,46.0,27.9,30.17,NE,46,1.0,14.0,49,0.00,,,0.00,Wunderground v.1.15,2013-02-24 08:25:00,
2013-02-24 00:30:00,46.1,27.0,30.17,NE,48,1.0,14.0,47,0.00,,,0.00,Wunderground v.1.15,2013-02-24 08:30:00,
2013-02-24 00:40:00,46.4,27.2,30.17,ENE,59,2.0,14.0,47,0.00,,,0.00,Wunderground v.1.15,2013-02-24 08:40:00,
2013-02-24 00:45:00,46.3,27.2,30.17,East,84,3.0,14.0,47,0.00,,,0.00,Wunderground v.1.15,2013-02-24 08:45:00,
2013-02-24 00:50:00,46.1,27.5,30.17,ENE,60,3.0,3.0,48,0.00,,,0.00,Wunderground v.1.15,2013-02-24 08:50:00,
2013-02-24 00:55:00,45.9,27.3,30.17,ENE,57,2.0,14.0,48,0.00,,,0.00,Wunderground v.1.15,2013-02-24 08:55:00,
2013-02-24 01:00:00,45.7,26.6,30.17,ENE,59,1.0,1.0,47,0.00,,,0.00,Wunderground v.1.15,2013-02-24 09:00:00,
2013-02-24 01:10:00,45.2,26.1,30.17,ENE,65,0.0,14.0,47,0.00,,,0.00,Wunderground v.1.15,2013-02-24 09:10:00,
2013-02-24 01:15:00,45.0,26.5,30.16,ENE,60,0.0,14.0,48,0.00,,,0.00,Wunderground v.1.15,2013-02-24 09:15:00,
2013-02-24 01:20:00,44.9,25.9,30.16,ENE,69,0.0,14.0,47,0.00,,,0.00,Wunderground v.1.15,2013-02-24 09:20:00,
2013-02-24 01:25:00,44.9,25.9,30.16,East,82,1.0,14.0,47,0.00,,,0.00,Wunderground v.1.15,2013-02-24 09:25:00,
2013-02-24 01:30:00,44.8,25.8,30.16,East,91,1.0,1.0,47,0.00,,,0.00,Wunderground v.1.15,2013-02-24 09:30:00,
2013-02-24 01:40:00,44.8,24.7,30.16,ENE,77,1.0,14.0,45,0.00,,,0.00,Wunderground v.1.15,2013-02-24 09:40:00,
2013-02-24 01:45:00,45.2,25.1,30.17,South,174,1.0,14.0,45,0.00,,,0.00,Wunderground v.1.15,2013-02-24 09:45:00,
2013-02-24 01:50:00,45.4,25.3,30.17,ESE,115,1.0,14.0,45,0.00,,,0.00,Wunderground v.1.15,2013-02-24 09:50:00,
2013-02-24 01:55:00,45.6,25.5,30.16,NE,50,1.0,14.0,45,0.00,,,0.00,Wunderground v.1.15,2013-02-24 09:55:00,
2013-02-24 02:00:00,45.6,25.5,30.16,SSE,158,1.0,1.0,45,0.00,,,0.00,Wunderground v.1.15,2013-02-24 10:00:00,
2013-02-24 02:10:00,45.7,25.0,30.17,NE,53,1.0,1.0,44,0.00,,,0.00,Wunderground v.1.15,2013-02-24 10:10:00,
2013-02-24 02:15:00,45.7,25.5,30.17,NE,49,2.0,2.0,45,0.00,,,0.00,Wunderground v.1.15,2013-02-24 10:15:00,
2013-02-24 02:20:00,45.6,25.5,30.17,NE,52,2.0,14.0,45,0.00,,,0.00,Wunderground v.1.15,2013-02-24 10:20:00,
2013-02-24 02:25:00,45.4,25.3,30.17,NE,37,2.0,14.0,45,0.00,,,0.00,Wunderground v.1.15,2013-02-24 10:25:00,
2013-02-24 02:30:00,45.3,25.2,30.16,NNW,340,2.0,14.0,45,0.00,,,0.00,Wunderground v.1.15,2013-02-24 10:30:00,
2013-02-24 02:35:00,45.2,25.1,30.16,North,357,2.0,14.0,45,0.00,,,0.00,Wunderground v.1.15,2013-02-24 10:35:00,
2013-02-24 02:40:00,45.1,25.5,30.16,NE,41,1.0,14.0,46,0.00,,,0.00,Wunderground v.1.15,2013-02-24 10:40:00,
2013-02-24 02:45:00,45.1,25.5,30.16,WNW,283,1.0,14.0,46,0.00,,,0.00,Wunderground v.1.15,2013-02-24 10:45:00,
2013-02-24 02:50:00,45.1,25.0,30.16,NW,314,2.0,14.0,45,0.00,,,0.00,Wunderground v.1.15,2013-02-24 10:50:00,
2013-02-24 02:55:00,45.2,25.6,30.15,NNW,329,2.0,14.0,46,0.00,,,0.00,Wunderground v.1.15,2013-02-24 10:55:00,
2013-02-24 03:05:00,45.4,24.7,30.15,ENE,61,3.0,14.0,44,0.00,,,0.00,Wunderground v.1.15,2013-02-24 11:05:00,
2013-02-24 03:15:00,45.5,24.3,30.15,West,269,2.0,14.0,43,0.00,,,0.00,Wunderground v.1.15,2013-02-24 11:15:00,
2013-02-24 03:20:00,45.5,24.3,30.15,NNE,30,2.0,14.0,43,0.00,,,0.00,Wunderground v.1.15,2013-02-24 11:20:00,
2013-02-24 03:30:00,45.7,23.9,30.15,NE,54,3.0,3.0,42,0.00,,,0.00,Wunderground v.1.15,2013-02-24 11:30:00,
2013-02-24 03:35:00,45.9,23.5,30.15,NNE,20,3.0,8.0,41,0.00,,,0.00,Wunderground v.1.15,2013-02-24 11:35:00,
2013-02-24 03:40:00,46.1,23.7,30.15,SSE,158,3.0,14.0,41,0.00,,,0.00,Wunderground v.1.15,2013-02-24 11:40:00,
2013-02-24 03:45:00,46.1,23.7,30.16,SW,236,2.0,14.0,41,0.00,,,0.00,Wunderground v.1.15,2013-02-24 11:45:00,
2013-02-24 03:50:00,46.0,23.6,30.16,SW,230,2.0,14.0,41,0.00,,,0.00,Wunderground v.1.15,2013-02-24 11:50:00,
2013-02-24 03:55:00,46.0,23.6,30.16,West,274,2.0,14.0,41,0.00,,,0.00,Wunderground v.1.15,2013-02-24 11:55:00,
2013-02-24 04:00:00,45.9,24.1,30.16,SSW,201,2.0,2.0,42,0.00,,,0.00,Wunderground v.1.15,2013-02-24 12:00:00,
2013-02-24 04:05:00,45.8,23.4,30.16,SSE,162,1.0,14.0,41,0.00,,,0.00,Wunderground v.1.15,2013-02-24 12:05:00,
2013-02-24 04:15:00,45.4,23.6,30.16,South,179,1.0,14.0,42,0.00,,,0.00,Wunderground v.1.15,2013-02-24 12:15:00,
2013-02-24 04:20:00,45.2,23.4,30.16,South,180,1.0,14.0,42,0.00,,,0.00,Wunderground v.1.15,2013-02-24 12:20:00,
2013-02-24 04:25:00,45.1,23.3,30.16,South,179,1.0,14.0,42,0.00,,,0.00,Wunderground v.1.15,2013-02-24 12:25:00,
2013-02-24 04:30:00,44.9,23.7,30.16,ENE,65,1.0,1.0,43,0.00,,,0.00,Wunderground v.1.15,2013-02-24 12:30:00,
2013-02-24 04:35:00,44.7,23.5,30.16,ESE,108,1.0,14.0,43,0.00,,,0.00,Wunderground v.1.15,2013-02-24 12:35:00,
2013-02-24 04:40:00,44.7,23.5,30.16,South,180,2.0,14.0,43,0.00,,,0.00,Wunderground v.1.15,2013-02-24 12:40:00,
2013-02-24 04:45:00,44.8,24.2,30.16,SSE,164,2.0,14.0,44,0.00,,,0.00,Wunderground v.1.15,2013-02-24 12:45:00,
2013-02-24 04:50:00,44.7,24.1,30.16,SSE,151,2.0,2.0,44,0.00,,,0.00,Wunderground v.1.15,2013-02-24 12:50:00,
2013-02-24 04:55:00,44.5,23.9,30.16,SSE,152,1.0,14.0,44,0.00,,,0.00,Wunderground v.1.15,2013-02-24 12:55:00,
2013-02-24 05:00:00,44.3,23.7,30.16,NE,38,1.0,14.0,44,0.00,,,0.00,Wunderground v.1.15,2013-02-24 13:00:00,
2013-02-24 05:05:00,44.2,24.2,30.17,SE,139,1.0,14.0,45,0.00,,,0.00,Wunderground v.1.15,2013-02-24 13:05:00,
2013-02-24 05:10:00,43.9,24.4,30.16,SSE,159,1.0,1.0,46,0.00,,,0.00,Wunderground v.1.15,2013-02-24 13:10:00,
2013-02-24 05:20:00,43.3,24.4,30.17,SE,129,0.0,14.0,47,0.00,,,0.00,Wunderground v.1.15,2013-02-24 13:20:00,
2013-02-24 05:25:00,43.1,24.7,30.17,SE,129,1.0,14.0,48,0.00,,,0.00,Wunderground v.1.15,2013-02-24 13:25:00,
2013-02-24 05:30:00,42.7,24.8,30.17,SE,127,0.0,14.0,49,0.00,,,0.00,Wunderground v.1.15,2013-02-24 13:30:00,
2013-02-24 05:35:00,42.3,25.0,30.17,SE,127,0.0,14.0,50,0.00,,,0.00,Wunderground v.1.15,2013-02-24 13:35:00,
2013-02-24 05:40:00,41.9,25.5,30.17,SE,127,0.0,14.0,52,0.00,,,0.00,Wunderground v.1.15,2013-02-24 13:40:00,
2013-02-24 05:45:00,41.4,25.5,30.17,SE,127,0.0,14.0,53,0.00,,,0.00,Wunderground v.1.15,2013-02-24 13:45:00,
2013-02-24 05:55:00,40.3,25.8,30.17,SE,127,0.0,14.0,56,0.00,,,0.00,Wunderground v.1.15,2013-02-24 13:55:00,
2013-02-24 06:00:00,39.9,25.9,30.17,ESE,122,0.0,14.0,57,0.00,,,0.00,Wunderground v.1.15,2013-02-24 14:00:00,
2013-02-24 06:05:00,39.4,25.8,30.18,ESE,121,0.0,14.0,58,0.00,,,0.00,Wunderground v.1.15,2013-02-24 14:05:00,
2013-02-24 06:10:00,39.1,26.0,30.18,ESE,109,0.0,14.0,59,0.00,,,0.00,Wunderground v.1.15,2013-02-24 14:10:00,
2013-02-24 06:15:00,38.8,26.1,30.18,ENE,76,0.0,14.0,60,0.00,,,0.00,Wunderground v.1.15,2013-02-24 14:15:00,
2013-02-24 06:25:00,38.4,26.1,30.18,ENE,76,0.0,14.0,61,0.00,,,0.00,Wunderground v.1.15,2013-02-24 14:25:00,
2013-02-24 06:35:00,38.1,25.8,30.18,ENE,57,1.0,14.0,61,0.00,,,0.00,Wunderground v.1.15,2013-02-24 14:35:00,
2013-02-24 06:40:00,37.9,26.4,30.19,ENE,57,1.0,1.0,63,0.00,,,0.00,Wunderground v.1.15,2013-02-24 14:40:00,
2013-02-24 06:45:00,37.8,26.7,30.19,ENE,57,0.0,14.0,64,0.00,,,0.00,Wunderground v.1.15,2013-02-24 14:45:00,
2013-02-24 06:55:00,37.5,26.8,30.19,ENE,58,1.0,14.0,65,0.00,,,0.00,Wunderground v.1.15,2013-02-24 14:55:00,
2013-02-24 07:00:00,37.4,26.7,30.19,NE,45,0.0,14.0,65,0.00,,,0.00,Wunderground v.1.15,2013-02-24 15:00:00,
2013-02-24 07:10:00,37.1,26.4,30.20,East,83,0.0,14.0,65,0.00,,,0.00,Wunderground v.1.15,2013-02-24 15:10:00,
2013-02-24 07:20:00,37.2,26.5,30.20,East,83,0.0,14.0,65,0.00,,,0.00,Wunderground v.1.15,2013-02-24 15:20:00,
2013-02-24 07:30:00,37.2,26.9,30.20,East,83,0.0,14.0,66,0.00,,,0.00,Wunderground v.1.15,2013-02-24 15:30:00,
2013-02-24 07:40:00,37.3,27.7,30.20,East,81,0.0,14.0,68,0.00,,,0.00,Wunderground v.1.15,2013-02-24 15:40:00,
2013-02-24 07:45:00,37.5,27.9,30.20,East,81,0.0,14.0,68,0.00,,,0.00,Wunderground v.1.15,2013-02-24 15:45:00,
2013-02-24 07:55:00,38.0,28.7,30.21,East,81,0.0,14.0,69,0.00,,,0.00,Wunderground v.1.15,2013-02-24 15:55:00,
2013-02-24 08:00:00,38.5,29.2,30.21,East,81,0.0,14.0,69,0.00,,,0.00,Wunderground v.1.15,2013-02-24 16:00:00,
2013-02-24 08:05:00,39.3,30.0,30.21,East,81,0.0,14.0,69,0.00,,,0.00,Wunderground v.1.15,2013-02-24 16:05:00,
2013-02-24 08:10:00,40.2,29.7,30.21,East,81,0.0,14.0,66,0.00,,,0.00,Wunderground v.1.15,2013-02-24 16:10:00,
2013-02-24 08:15:00,41.3,29.3,30.21,East,81,0.0,14.0,62,0.00,,,0.00,Wunderground v.1.15,2013-02-24 16:15:00,
2013-02-24 08:20:00,42.5,30.4,30.21,East,81,0.0,14.0,62,0.00,,,0.00,Wunderground v.1.15,2013-02-24 16:20:00,
2013-02-24 08:30:00,44.7,28.1,30.22,East,81,0.0,14.0,52,0.00,,,0.00,Wunderground v.1.15,2013-02-24 16:30:00,
2013-02-24 08:35:00,46.0,29.3,30.22,East,81,0.0,14.0,52,0.00,,,0.00,Wunderground v.1.15,2013-02-24 16:35:00,
2013-02-24 08:40:00,47.7,28.4,30.22,East,81,0.0,14.0,47,0.00,,,0.00,Wunderground v.1.15,2013-02-24 16:40:00,
2013-02-24 08:45:00,48.6,27.6,30.22,East,82,0.0,14.0,44,0.00,,,0.00,Wunderground v.1.15,2013-02-24 16:45:00,
2013-02-24 08:50:00,49.3,27.7,30.22,East,82,0.0,14.0,43,0.00,,,0.00,Wunderground v.1.15,2013-02-24 16:50:00,
2013-02-24 09:00:00,50.3,27.5,30.22,SE,134,0.0,14.0,41,0.00,,,0.00,Wunderground v.1.15,2013-02-24 17:00:00,
2013-02-24 09:05:00,50.4,29.8,30.22,SSE,168,1.0,14.0,45,0.00,,,0.00,Wunderground v.1.15,2013-02-24 17:05:00,
2013-02-24 09:10:00,50.5,28.8,30.22,SSE,167,1.0,14.0,43,0.00,,,0.00,Wunderground v.1.15,2013-02-24 17:10:00,
2013-02-24 09:15:00,50.8,28.5,30.22,South,171,2.0,14.0,42,0.00,,,0.00,Wunderground v.1.15,2013-02-24 17:15:00,
2013-02-24 09:20:00,51.1,27.6,30.22,South,169,2.0,14.0,40,0.00,,,0.00,Wunderground v.1.15,2013-02-24 17:20:00,
2013-02-24 09:30:00,52.0,28.4,30.22,South,169,1.0,1.0,40,0.00,,,0.00,Wunderground v.1.15,2013-02-24 17:30:00,
2013-02-24 09:35:00,53.0,28.0,30.22,ENE,75,1.0,6.0,38,0.00,,,0.00,Wunderground v.1.15,2013-02-24 17:35:00,
2013-02-24 09:40:00,54.0,28.3,30.22,NE,39,2.0,14.0,37,0.00,,,0.00,Wunderground v.1.15,2013-02-24 17:40:00,
2013-02-24 09:45:00,54.7,27.6,30.22,ENE,65,4.0,14.0,35,0.00,,,0.00,Wunderground v.1.15,2013-02-24 17:45:00,
2013-02-24 09:50:00,55.3,27.4,30.22,NE,50,3.0,3.0,34,0.00,,,0.00,Wunderground v.1.15,2013-02-24 17:50:00,
2013-02-24 09:55:00,55.9,27.9,30.22,NNE,32,2.0,5.0,34,0.00,,,0.00,Wunderground v.1.15,2013-02-24 17:55:00,
2013-02-24 10:00:00,56.4,26.9,30.22,ENE,66,2.0,2.0,32,0.00,,,0.00,Wunderground v.1.15,2013-02-24 18:00:00,
2013-02-24 10:05:00,56.6,27.0,30.22,South,187,2.0,14.0,32,0.00,,,0.00,Wunderground v.1.15,2013-02-24 18:05:00,
2013-02-24 10:10:00,56.8,28.0,30.22,NNE,28,1.0,1.0,33,0.00,,,0.00,Wunderground v.1.15,2013-02-24 18:10:00,
2013-02-24 10:15:00,57.4,27.7,30.22,NE,41,2.0,2.0,32,0.00,,,0.00,Wunderground v.1.15,2013-02-24 18:15:00,
2013-02-24 10:25:00,57.9,27.4,30.21,NE,40,2.0,3.0,31,0.00,,,0.00,Wunderground v.1.15,2013-02-24 18:25:00,
2013-02-24 10:35:00,58.1,29.1,30.21,NE,36,2.0,5.0,33,0.00,,,0.00,Wunderground v.1.15,2013-02-24 18:35:00,
2013-02-24 10:40:00,58.6,28.8,30.21,NE,39,3.0,3.0,32,0.00,,,0.00,Wunderground v.1.15,2013-02-24 18:40:00,
2013-02-24 10:45:00,59.1,28.5,30.21,NW,304,2.0,3.0,31,0.00,,,0.00,Wunderground v.1.15,2013-02-24 18:45:00,
2013-02-24 10:50:00,59.6,28.1,30.21,NE,37,2.0,2.0,30,0.00,,,0.00,Wunderground v.1.15,2013-02-24 18:50:00,
2013-02-24 10:55:00,59.7,29.0,30.21,North,352,2.0,2.0,31,0.00,,,0.00,Wunderground v.1.15,2013-02-24 18:55:00,
2013-02-24 11:05:00,60.1,28.5,30.21,NE,56,2.0,5.0,30,0.00,,,0.00,Wunderground v.1.15,2013-02-24 19:05:00,
2013-02-24 11:10:00,60.4,28.8,30.21,SW,216,1.0,2.0,30,0.00,,,0.00,Wunderground v.1.15,2013-02-24 19:10:00,
2013-02-24 11:15:00,60.8,27.5,30.21,WNW,302,2.0,3.0,28,0.00,,,0.00,Wunderground v.1.15,2013-02-24 19:15:00,
2013-02-24 11:20:00,61.0,27.6,30.20,North,359,2.0,8.0,28,0.00,,,0.00,Wunderground v.1.15,2013-02-24 19:20:00,
2013-02-24 11:25:00,61.3,27.9,30.20,NE,46,2.0,8.0,28,0.00,,,0.00,Wunderground v.1.15,2013-02-24 19:25:00,
2013-02-24 11:35:00,60.9,27.5,30.20,East,94,2.0,4.0,28,0.00,,,0.00,Wunderground v.1.15,2013-02-24 19:35:00,
2013-02-24 11:40:00,61.3,27.0,30.20,NW,313,2.0,8.0,27,0.00,,,0.00,Wunderground v.1.15,2013-02-24 19:40:00,
2013-02-24 11:45:00,61.8,28.3,30.20,North,1,4.0,8.0,28,0.00,,,0.00,Wunderground v.1.15,2013-02-24 19:45:00,
2013-02-24 11:50:00,62.2,26.9,30.20,NE,39,4.0,8.0,26,0.00,,,0.00,Wunderground v.1.15,2013-02-24 19:50:00,
2013-02-24 11:55:00,62.4,27.0,30.20,NNE,25,3.0,8.0,26,0.00,,,0.00,Wunderground v.1.15,2013-02-24 19:55:00,
2013-02-24 12:00:00,62.7,27.3,30.20,NE,38,2.0,8.0,26,0.00,,,0.00,Wunderground v.1.15,2013-02-24 20:00:00,
2013-02-24 12:05:00,62.9,27.5,30.19,NNE,23,3.0,8.0,26,0.00,,,0.00,Wunderground v.1.15,2013-02-24 20:05:00,
2013-02-24 12:10:00,62.9,26.5,30.19,North,1,3.0,3.0,25,0.00,,,0.00,Wunderground v.1.15,2013-02-24 20:10:00,
2013-02-24 12:15:00,63.1,27.6,30.19,East,89,2.0,8.0,26,0.00,,,0.00,Wunderground v.1.15,2013-02-24 20:15:00,
2013-02-24 12:20:00,63.6,26.1,30.18,ENE,65,3.0,8.0,24,0.00,,,0.00,Wunderground v.1.15,2013-02-24 20:20:00,
2013-02-24 12:25:00,63.6,26.1,30.18,NNE,33,3.0,8.0,24,0.00,,,0.00,Wunderground v.1.15,2013-02-24 20:25:00,
2013-02-24 12:30:00,64.0,27.4,30.18,North,349,2.0,8.0,25,0.00,,,0.00,Wunderground v.1.15,2013-02-24 20:30:00,
2013-02-24 12:40:00,64.3,25.7,30.17,NNE,32,3.0,3.0,23,0.00,,,0.00,Wunderground v.1.15,2013-02-24 20:40:00,
2013-02-24 12:45:00,64.4,24.7,30.17,NNE,23,3.0,8.0,22,0.00,,,0.00,Wunderground v.1.15,2013-02-24 20:45:00,
2013-02-24 12:50:00,64.3,24.6,30.17,SSW,198,3.0,3.0,22,0.00,,,0.00,Wunderground v.1.15,2013-02-24 20:50:00,
2013-02-24 12:55:00,64.3,23.5,30.17,West,264,3.0,8.0,21,0.00,,,0.00,Wunderground v.1.15,2013-02-24 20:55:00,
2013-02-24 13:00:00,64.3,24.6,30.17,NE,44,3.0,8.0,22,0.00,,,0.00,Wunderground v.1.15,2013-02-24 21:00:00,
2013-02-24 13:05:00,64.8,25.0,30.17,NNE,13,5.0,8.0,22,0.00,,,0.00,Wunderground v.1.15,2013-02-24 21:05:00,
2013-02-24 13:10:00,65.0,25.2,30.16,ENE,60,4.0,4.0,22,0.00,,,0.00,Wunderground v.1.15,2013-02-24 21:10:00,
2013-02-24 13:15:00,65.1,23.0,30.16,NW,316,3.0,8.0,20,0.00,,,0.00,Wunderground v.1.15,2013-02-24 21:15:00,
2013-02-24 13:20:00,65.1,23.0,30.16,NNE,21,3.0,8.0,20,0.00,,,0.00,Wunderground v.1.15,2013-02-24 21:20:00,
2013-02-24 13:25:00,65.3,23.2,30.15,NE,43,4.0,11.0,20,0.00,,,0.00,Wunderground v.1.15,2013-02-24 21:25:00,
2013-02-24 13:30:00,65.4,23.2,30.15,East,81,4.0,4.0,20,0.00,,,0.00,Wunderground v.1.15,2013-02-24 21:30:00,
2013-02-24 13:40:00,65.5,23.3,30.15,NE,54,5.0,5.0,20,0.00,,,0.00,Wunderground v.1.15,2013-02-24 21:40:00,
2013-02-24 13:45:00,65.4,24.4,30.15,NNW,335,4.0,8.0,21,0.00,,,0.00,Wunderground v.1.15,2013-02-24 21:45:00,
2013-02-24 13:50:00,65.3,25.4,30.15,NNW,338,4.0,4.0,22,0.00,,,0.00,Wunderground v.1.15,2013-02-24 21:50:00,
2013-02-24 13:55:00,65.4,25.5,30.14,WNW,296,4.0,8.0,22,0.00,,,0.00,Wunderground v.1.15,2013-02-24 21:55:00,
2013-02-24 14:00:00,66.0,26.0,30.14,NW,304,4.0,8.0,22,0.00,,,0.00,Wunderground v.1.15,2013-02-24 22:00:00,
2013-02-24 14:05:00,66.0,24.9,30.14,NNW,346,5.0,8.0,21,0.00,,,0.00,Wunderground v.1.15,2013-02-24 22:05:00,
2013-02-24 14:10:00,66.2,25.1,30.14,NE,41,4.0,4.0,21,0.00,,,0.00,Wunderground v.1.15,2013-02-24 22:10:00,
2013-02-24 14:15:00,66.5,25.3,30.14,NNW,330,3.0,8.0,21,0.00,,,0.00,Wunderground v.1.15,2013-02-24 22:15:00,
2013-02-24 14:20:00,66.6,25.4,30.14,NW,319,3.0,3.0,21,0.00,,,0.00,Wunderground v.1.15,2013-02-24 22:20:00,
2013-02-24 14:25:00,66.7,23.1,30.14,NNE,30,3.0,8.0,19,0.00,,,0.00,Wunderground v.1.15,2013-02-24 22:25:00,
2013-02-24 14:30:00,66.8,21.9,30.14,NNW,332,3.0,3.0,18,0.00,,,0.00,Wunderground v.1.15,2013-02-24 22:30:00,
2013-02-24 14:35:00,66.7,19.0,30.14,NNE,18,4.0,4.0,16,0.00,,,0.00,Wunderground v.1.15,2013-02-24 22:35:00,
2013-02-24 14:45:00,66.5,18.9,30.14,NE,37,4.0,13.0,16,0.00,,,0.00,Wunderground v.1.15,2013-02-24 22:45:00,
2013-02-24 14:50:00,66.0,21.2,30.14,NNW,339,4.0,4.0,18,0.00,,,0.00,Wunderground v.1.15,2013-02-24 22:50:00,
2013-02-24 14:55:00,66.1,21.3,30.14,North,360,4.0,8.0,18,0.00,,,0.00,Wunderground v.1.15,2013-02-24 22:55:00,
2013-02-24 15:00:00,66.1,21.3,30.14,NE,53,4.0,4.0,18,0.00,,,0.00,Wunderground v.1.15,2013-02-24 23:00:00,
2013-02-24 15:05:00,66.1,22.6,30.13,NW,318,3.0,8.0,19,0.00,,,0.00,Wunderground v.1.15,2013-02-24 23:05:00,
2013-02-24 15:15:00,66.1,22.6,30.13,WNW,302,3.0,8.0,19,0.00,,,0.00,Wunderground v.1.15,2013-02-24 23:15:00,
2013-02-24 15:20:00,66.3,24.0,30.13,WSW,245,3.0,3.0,20,0.00,,,0.00,Wunderground v.1.15,2013-02-24 23:20:00,
2013-02-24 15:25:00,66.6,23.0,30.13,NNW,330,3.0,4.0,19,0.00,,,0.00,Wunderground v.1.15,2013-02-24 23:25:00,
2013-02-24 15:30:00,66.1,22.6,30.13,WNW,298,4.0,4.0,19,0.00,,,0.00,Wunderground v.1.15,2013-02-24 23:30:00,
2013-02-24 15:35:00,66.1,22.6,30.13,NW,319,4.0,8.0,19,0.00,,,0.00,Wunderground v.1.15,2013-02-24 23:35:00,
2013-02-24 15:40:00,66.2,22.7,30.13,NW,316,2.0,10.0,19,0.00,,,0.00,Wunderground v.1.15,2013-02-24 23:40:00,
2013-02-24 15:45:00,66.2,22.7,30.13,NNE,23,3.0,10.0,19,0.00,,,0.00,Wunderground v.1.15,2013-02-24 23:45:00,
2013-02-24 15:50:00,66.1,22.6,30.13,North,360,4.0,4.0,19,0.00,,,0.00,Wunderground v.1.15,2013-02-24 23:50:00,
2013-02-24 15:55:00,65.7,22.3,30.13,SSW,205,3.0,9.0,19,0.00,,,0.00,Wunderground v.1.15,2013-02-24 23:55:00,
2013-02-24 16:00:00,64.2,34.5,30.13,SW,225,4.0,8.0,33,0.00,,,0.00,Wunderground v.1.15,2013-02-25 00:00:00,
2013-02-24 16:05:00,63.0,34.9,30.13,SSW,201,5.0,9.0,35,0.00,,,0.00,Wunderground v.1.15,2013-02-25 00:05:00,
2013-02-24 16:10:00,61.0,35.8,30.13,NW,326,7.0,7.0,39,0.00,,,0.00,Wunderground v.1.15,2013-02-25 00:10:00,
2013-02-24 16:20:00,59.3,36.2,30.14,SSW,209,8.0,8.0,42,0.00,,,0.00,Wunderground v.1.15,2013-02-25 00:20:00,
2013-02-24 16:25:00,58.9,34.6,30.14,WSW,238,7.0,8.0,40,0.00,,,0.00,Wunderground v.1.15,2013-02-25 00:25:00,
2013-02-24 16:30:00,58.6,34.3,30.13,WSW,246,6.0,8.0,40,0.00,,,0.00,Wunderground v.1.15,2013-02-25 00:30:00,
2013-02-24 16:35:00,58.9,35.2,30.14,SW,219,5.0,8.0,41,0.00,,,0.00,Wunderground v.1.15,2013-02-25 00:35:00,
2013-02-24 16:40:00,59.1,35.4,30.14,SSW,202,5.0,8.0,41,0.00,,,0.00,Wunderground v.1.15,2013-02-25 00:40:00,
2013-02-24 16:50:00,57.2,37.7,30.14,SSW,204,7.0,7.0,48,0.00,,,0.00,Wunderground v.1.15,2013-02-25 00:50:00,
2013-02-24 16:55:00,57.7,37.0,30.14,West,259,4.0,8.0,46,0.00,,,0.00,Wunderground v.1.15,2013-02-25 00:55:00,
2013-02-24 17:00:00,57.8,38.2,30.14,South,190,3.0,8.0,48,0.00,,,0.00,Wunderground v.1.15,2013-02-25 01:00:00,
2013-02-24 17:05:00,58.0,38.4,30.14,WNW,296,3.0,8.0,48,0.00,,,0.00,Wunderground v.1.15,2013-02-25 01:05:00,
2013-02-24 17:10:00,58.2,35.2,30.14,West,274,3.0,8.0,42,0.00,,,0.00,Wunderground v.1.15,2013-02-25 01:10:00,
2013-02-24 17:15:00,58.0,35.0,30.14,WSW,256,3.0,8.0,42,0.00,,,0.00,Wunderground v.1.15,2013-02-25 01:15:00,
2013-02-24 17:20:00,57.8,34.2,30.14,WSW,240,2.0,2.0,41,0.00,,,0.00,Wunderground v.1.15,2013-02-25 01:20:00,
2013-02-24 17:25:00,57.3,33.8,30.14,West,270,3.0,3.0,41,0.00,,,0.00,Wunderground v.1.15,2013-02-25 01:25:00,
2013-02-24 17:30:00,57.1,34.2,30.14,West,268,3.0,8.0,42,0.00,,,0.00,Wunderground v.1.15,2013-02-25 01:30:00,
2013-02-24 17:35:00,56.9,35.2,30.14,West,269,3.0,8.0,44,0.00,,,0.00,Wunderground v.1.15,2013-02-25 01:35:00,
2013-02-24 17:40:00,56.4,38.0,30.14,WSW,238,3.0,8.0,50,0.00,,,0.00,Wunderground v.1.15,2013-02-25 01:40:00,
2013-02-24 17:45:00,55.9,38.0,30.15,WSW,238,2.0,8.0,51,0.00,,,0.00,Wunderground v.1.15,2013-02-25 01:45:00,
2013-02-24 17:55:00,54.8,38.5,30.14,SSW,205,0.0,8.0,54,0.00,,,0.00,Wunderground v.1.15,2013-02-25 01:55:00,
2013-02-24 18:00:00,54.2,37.9,30.14,SSW,205,0.0,8.0,54,0.00,,,0.00,Wunderground v.1.15,2013-02-25 02:00:00,
2013-02-24 18:05:00,53.5,37.7,30.14,SSW,205,0.0,8.0,55,0.00,,,0.00,Wunderground v.1.15,2013-02-25 02:05:00,
2013-02-24 18:10:00,52.9,37.6,30.14,SSW,205,0.0,8.0,56,0.00,,,0.00,Wunderground v.1.15,2013-02-25 02:10:00,
2013-02-24 18:15:00,52.2,37.4,30.14,SSW,205,0.0,8.0,57,0.00,,,0.00,Wunderground v.1.15,2013-02-25 02:15:00,
2013-02-24 18:20:00,51.6,37.3,30.14,SSW,205,0.0,8.0,58,0.00,,,0.00,Wunderground v.1.15,2013-02-25 02:20:00,
2013-02-24 18:25:00,51.1,36.8,30.14,SSW,205,0.0,8.0,58,0.00,,,0.00,Wunderground v.1.15,2013-02-25 02:25:00,
2013-02-24 18:30:00,50.6,36.4,30.14,SSW,205,0.0,8.0,58,0.00,,,0.00,Wunderground v.1.15,2013-02-25 02:30:00,
2013-02-24 18:35:00,50.1,35.9,30.15,SSW,205,0.0,8.0,58,0.00,,,0.00,Wunderground v.1.15,2013-02-25 02:35:00,
2013-02-24 18:40:00,49.3,35.6,30.15,SSW,205,0.0,8.0,59,0.00,,,0.00,Wunderground v.1.15,2013-02-25 02:40:00,
2013-02-24 18:45:00,48.7,35.4,30.15,South,184,0.0,8.0,60,0.00,,,0.00,Wunderground v.1.15,2013-02-25 02:45:00,
2013-02-24 18:55:00,47.8,35.0,30.15,South,184,0.0,8.0,61,0.00,,,0.00,Wunderground v.1.15,2013-02-25 02:55:00,
2013-02-24 19:00:00,47.4,34.6,30.15,South,184,0.0,8.0,61,0.00,,,0.00,Wunderground v.1.15,2013-02-25 03:00:00,
2013-02-24 19:05:00,47.2,34.8,30.15,South,184,0.0,8.0,62,0.00,,,0.00,Wunderground v.1.15,2013-02-25 03:05:00,
2013-02-24 19:10:00,46.9,34.6,30.15,South,184,0.0,8.0,62,0.00,,,0.00,Wunderground v.1.15,2013-02-25 03:10:00,
2013-02-24 19:15:00,46.7,34.8,30.15,South,184,0.0,8.0,63,0.00,,,0.00,Wunderground v.1.15,2013-02-25 03:15:00,
2013-02-24 19:20:00,46.3,34.4,30.15,South,184,0.0,8.0,63,0.00,,,0.00,Wunderground v.1.15,2013-02-25 03:20:00,
2013-02-24 19:25:00,46.1,34.2,30.15,South,184,0.0,8.0,63,0.00,,,0.00,Wunderground v.1.15,2013-02-25 03:25:00,
2013-02-24 19:30:00,45.9,34.4,30.15,South,184,0.0,8.0,64,0.00,,,0.00,Wunderground v.1.15,2013-02-25 03:30:00,
2013-02-24 19:35:00,45.7,34.2,30.15,South,179,0.0,8.0,64,0.00,,,0.00,Wunderground v.1.15,2013-02-25 03:35:00,
2013-02-24 19:40:00,45.5,34.4,30.15,South,174,0.0,8.0,65,0.00,,,0.00,Wunderground v.1.15,2013-02-25 03:40:00,
2013-02-24 19:45:00,45.3,34.2,30.15,South,174,0.0,8.0,65,0.00,,,0.00,Wunderground v.1.15,2013-02-25 03:45:00,
2013-02-24 19:50:00,45.0,33.5,30.15,South,174,0.0,8.0,64,0.00,,,0.00,Wunderground v.1.15,2013-02-25 03:50:00,
2013-02-24 20:00:00,44.7,33.6,30.16,South,174,0.0,8.0,65,0.00,,,0.00,Wunderground v.1.15,2013-02-25 04:00:00,
2013-02-24 20:10:00,44.4,33.4,30.17,South,174,0.0,8.0,65,0.00,,,0.00,Wunderground v.1.15,2013-02-25 04:10:00,
2013-02-24 20:15:00,44.3,33.3,30.17,South,174,0.0,8.0,65,0.00,,,0.00,Wunderground v.1.15,2013-02-25 04:15:00,
2013-02-24 20:25:00,44.0,33.4,30.17,South,172,0.0,8.0,66,0.00,,,0.00,Wunderground v.1.15,2013-02-25 04:25:00,
2013-02-24 20:35:00,43.6,32.6,30.17,South,172,0.0,8.0,65,0.00,,,0.00,Wunderground v.1.15,2013-02-25 04:35:00,
2013-02-24 20:40:00,43.5,32.9,30.17,SSE,158,0.0,8.0,66,0.00,,,0.00,Wunderground v.1.15,2013-02-25 04:40:00,
2013-02-24 20:45:00,43.3,33.1,30.17,SSE,158,0.0,8.0,67,0.00,,,0.00,Wunderground v.1.15,2013-02-25 04:45:00,
2013-02-24 20:55:00,43.1,32.9,30.17,SSE,158,0.0,8.0,67,0.00,,,0.00,Wunderground v.1.15,2013-02-25 04:55:00,
2013-02-24 21:00:00,43.0,32.8,30.17,SSE,158,0.0,8.0,67,0.00,,,0.00,Wunderground v.1.15,2013-02-25 05:00:00,
2013-02-24 21:05:00,42.9,32.7,30.17,SSE,158,0.0,8.0,67,0.00,,,0.00,Wunderground v.1.15,2013-02-25 05:05:00,
2013-02-24 21:10:00,42.7,32.5,30.17,SSE,158,0.0,8.0,67,0.00,,,0.00,Wunderground v.1.15,2013-02-25 05:10:00,
2013-02-24 21:15:00,42.6,32.4,30.18,SSE,158,0.0,8.0,67,0.00,,,0.00,Wunderground v.1.15,2013-02-25 05:15:00,
2013-02-24 21:20:00,42.4,32.2,30.18,SSE,158,0.0,8.0,67,0.00,,,0.00,Wunderground v.1.15,2013-02-25 05:20:00,
2013-02-24 21:30:00,42.2,32.0,30.18,SSE,155,0.0,8.0,67,0.00,,,0.00,Wunderground v.1.15,2013-02-25 05:30:00,
2013-02-24 21:35:00,42.1,32.3,30.18,SSE,155,0.0,8.0,68,0.00,,,0.00,Wunderground v.1.15,2013-02-25 05:35:00,
2013-02-24 21:45:00,41.9,32.1,30.19,SSE,155,0.0,8.0,68,0.00,,,0.00,Wunderground v.1.15,2013-02-25 05:45:00,
2013-02-24 21:55:00,41.6,32.2,30.19,SSE,155,0.0,8.0,69,0.00,,,0.00,Wunderground v.1.15,2013-02-25 05:55:00,
2013-02-24 22:00:00,41.6,31.8,30.19,SSE,155,0.0,8.0,68,0.00,,,0.00,Wunderground v.1.15,2013-02-25 06:00:00,
2013-02-24 22:10:00,41.6,31.1,30.20,ENE,73,1.0,1.0,66,0.00,,,0.00,Wunderground v.1.15,2013-02-25 06:10:00,
2013-02-24 22:20:00,41.5,31.4,30.20,ENE,73,0.0,8.0,67,0.00,,,0.00,Wunderground v.1.15,2013-02-25 06:20:00,
2013-02-24 22:30:00,41.5,31.0,30.20,ENE,72,0.0,8.0,66,0.00,,,0.00,Wunderground v.1.15,2013-02-25 06:30:00,
2013-02-24 22:40:00,41.8,31.3,30.20,NE,55,1.0,1.0,66,0.00,,,0.00,Wunderground v.1.15,2013-02-25 06:40:00,
2013-02-24 22:50:00,41.9,31.7,30.20,NE,53,0.0,8.0,67,0.00,,,0.00,Wunderground v.1.15,2013-02-25 06:50:00,
2013-02-24 23:00:00,41.8,31.6,30.19,NE,53,1.0,8.0,67,0.00,,,0.00,Wunderground v.1.15,2013-02-25 07:00:00,
2013-02-24 23:10:00,41.7,31.5,30.19,NE,53,1.0,8.0,67,0.00,,,0.00,Wunderground v.1.15,2013-02-25 07:10:00,
2013-02-24 23:20:00,41.5,31.4,30.19,NE,53,0.0,8.0,67,0.00,,,0.00,Wunderground v.1.15,2013-02-25 07:20:00,
2013-02-24 23:30:00,41.3,30.8,30.19,NE,53,0.0,8.0,66,0.00,,,0.00,Wunderground v.1.15,2013-02-25 07:30:00,
2013-02-24 23:35:00,41.3,30.8,30.20,NE,53,0.0,8.0,66,0.00,,,0.00,Wunderground v.1.15,2013-02-25 07:35:00,
2013-02-24 23:45:00,41.1,30.6,30.20,NE,48,1.0,8.0,66,0.00,,,0.00,Wunderground v.1.15,2013-02-25 07:45:00,
2013-02-24 23:55:00,40.9,30.4,30.21,NE,48,0.0,8.0,66,0.00,,,0.00,Wunderground v.1.15,2013-02-25 07:55:00,